Voltar ao catálogo

THORAD DELTA 1 DEB

AtivoLEO
NORAD 8169·DEBRIS·🇺🇸 United States

Lançado Nov 15, 1974 de Vandenberg Space Force Base

Loading…

Próximas Passagens (próximas 24 horas)

TLE

AtualizadoSource: Space-Track

Época: Sep 13, 2026, 23:12 UTC

1  8169U 74089AK  26256.96678330  .00000528  00000-0  20225-2 0  9993
2  8169 102.5178 260.9323 0125100 330.3308  56.6543 12.94575241412268

Acompanhe THORAD DELTA 1 DEB em tempo real com AllMySat

Download on the App Store